Date String (YYYY-MM-DD hh:mm:ss) UTC,Instrument flags,Ambient pressure (hPa),Sample flow (lpm),Bypass flow (lpm),Sample temperature (°C),Ambient temperature (°C),ASC tube jacket temperature (°C),LED temperature (°C),Box temperature (°C),Sample RH (%),Span deviation,Mass concentration (μg/m³),Mass concentration (μg/m³),Mass concentration (μg/m³)
DateTimeUTC,F1_M11,P_M11,Q1_M11,Q2_M11,T1_M11,T2_M11,T3_M11,T4_M11,T5_M11,U1_M11,ZSPAN_M11,X0_M11,X2_M11,X1_M11
2022-04-20 21:00:00,,0817.9,4.99,0.00,28.7,28.1,00.0,37.6,30.6,07.6,0000.0,0034.18,0009.16,0003.47
2022-04-20 21:01:00,,0818.0,5.00,0.00,28.8,28.1,00.0,37.6,30.6,07.5,0000.0,0033.80,0009.13,0003.45
2022-04-20 21:02:00,,0818.0,5.01,0.00,28.8,28.1,00.0,37.6,30.6,07.2,0000.0,0033.38,0009.19,0003.45
2022-04-20 21:03:00,,0817.8,5.00,0.00,28.8,28.1,00.0,37.6,30.6,07.0,0000.0,0032.58,0009.10,0003.42
2022-04-20 21:04:00,,0818.0,5.00,0.00,28.8,28.2,00.0,37.6,30.6,07.1,0000.0,0033.05,0009.01,0003.40
2022-04-20 21:05:00,,0818.0,4.99,0.00,28.8,28.2,00.0,37.6,30.7,07.2,0000.0,0033.50,0009.03,0003.39
2022-04-20 21:06:00,,0817.9,5.01,0.00,28.9,28.2,00.0,37.6,30.7,07.2,0000.0,0033.24,0009.05,0003.39
2022-04-20 21:07:00,,0818.0,5.00,0.00,28.9,28.2,00.0,37.7,30.7,07.2,0000.0,0032.77,0008.99,0003.37
2022-04-20 21:08:00,,0817.9,4.99,0.00,28.9,28.2,00.0,37.7,30.7,06.9,0000.0,0031.61,0008.96,0003.38
2022-04-20 21:09:00,,0818.0,5.02,0.00,28.9,28.3,00.0,37.7,30.7,07.1,0000.0,0030.62,0008.84,0003.39
2022-04-20 21:10:00,,0817.9,5.00,0.00,28.9,28.3,00.0,37.7,30.8,07.2,0000.0,0029.90,0008.87,0003.41
2022-04-20 21:11:00,,0818.0,4.99,0.00,28.9,28.3,00.0,37.7,30.8,07.2,0000.0,0029.31,0008.90,0003.41
2022-04-20 21:12:00,,0817.9,5.01,0.00,29.0,28.3,00.0,37.7,30.8,07.1,0000.0,0028.66,0008.78,0003.40
2022-04-20 21:13:00,,0818.0,4.99,0.00,29.0,28.3,00.0,37.8,30.8,07.0,0000.0,0028.29,0008.71,0003.38
2022-04-20 21:14:00,,0817.9,5.02,0.00,29.0,28.3,00.0,37.8,30.8,07.1,0000.0,0029.05,0008.75,0003.39
2022-04-20 21:15:00,,0817.9,4.99,0.00,29.0,28.3,00.0,37.8,30.8,07.1,0000.0,0030.07,0008.77,0003.39
2022-04-20 21:16:00,,0818.0,5.01,0.00,29.0,28.3,00.0,37.8,30.8,07.2,0000.0,0030.32,0008.85,0003.40
2022-04-20 21:17:00,,0817.9,5.00,0.00,29.0,28.3,00.0,37.8,30.8,07.1,0000.0,0031.25,0008.93,0003.41
2022-04-20 21:18:00,,0817.9,4.98,0.00,29.0,28.3,00.0,37.8,30.7,07.2,0000.5,0030.89,0008.94,0003.42
2022-04-20 21:19:00,,0818.0,5.00,0.00,29.0,28.2,00.0,37.8,30.7,07.0,0001.3,0030.82,0009.03,0003.42
2022-04-20 21:20:00,,0818.0,4.99,0.00,29.0,28.2,00.0,37.8,30.7,07.2,0000.0,0030.88,0009.20,0003.44
2022-04-20 21:21:00,,0818.0,5.01,0.00,28.9,28.2,00.0,37.8,30.7,07.3,0000.0,0031.43,0009.21,0003.44
2022-04-20 21:22:00,,0818.0,4.99,0.00,28.9,28.2,00.0,37.8,30.7,07.3,0000.0,0032.03,0009.16,0003.45
2022-04-20 21:23:00,,0818.0,5.00,0.00,29.0,28.2,00.0,37.8,30.7,07.3,0000.7,0032.79,0009.27,0003.47
2022-04-20 21:24:00,,0818.0,5.01,0.00,29.0,28.3,00.0,37.8,30.7,07.2,0000.9,0034.21,0009.36,0003.49
2022-04-20 21:25:00,,0817.9,4.99,0.00,29.0,28.3,00.0,37.8,30.8,07.3,0000.7,0035.39,0009.40,0003.52
2022-04-20 21:26:00,,0817.9,5.01,0.00,29.0,28.3,00.0,37.9,30.8,07.1,0001.6,0033.97,0009.30,0003.54
2022-04-20 21:27:00,,0817.8,5.00,0.00,29.0,28.3,00.0,37.9,30.8,07.4,0000.8,0033.14,0009.31,0003.56
2022-04-20 21:28:00,,0817.9,4.99,0.00,29.0,28.3,00.0,37.9,30.8,07.2,0000.0,0033.58,0009.37,0003.56
2022-04-20 21:29:00,,0817.9,5.00,0.00,29.0,28.3,00.0,37.9,30.8,07.2,0000.0,0034.29,0009.53,0003.59
2022-04-20 21:30:00,,0817.9,4.99,0.00,29.0,28.3,00.0,37.9,30.8,07.2,0000.0,0034.99,0009.61,0003.59
2022-04-20 21:31:00,,0818.0,5.01,0.00,29.1,28.3,00.0,37.9,30.9,07.2,0000.0,0035.10,0009.63,0003.60
2022-04-20 21:32:00,,0818.0,5.00,0.00,29.1,28.4,00.0,37.9,30.9,07.2,0000.0,0035.78,0009.65,0003.60
2022-04-20 21:33:00,,0817.9,4.99,0.00,29.1,28.4,00.0,37.9,30.8,07.3,0000.0,0037.03,0009.76,0003.61
2022-04-20 21:34:00,,0817.9,5.01,0.00,29.1,28.4,00.0,37.9,30.9,07.2,0000.0,0036.82,0009.80,0003.60
2022-04-20 21:35:00,,0817.9,5.02,0.00,29.1,28.4,00.0,37.9,30.9,07.5,0000.0,0037.54,0009.76,0003.60
2022-04-20 21:36:00,,0818.0,5.00,0.00,29.1,28.4,00.0,37.9,30.9,07.1,0000.0,0037.79,0009.73,0003.57
2022-04-20 21:37:00,,0817.9,4.99,0.00,29.1,28.4,00.0,38.0,30.9,07.3,0000.0,0037.09,0009.80,0003.56
2022-04-20 21:38:00,,0817.9,5.02,0.00,29.1,28.4,00.0,38.0,30.9,07.3,0000.0,0037.67,0009.82,0003.55
2022-04-20 21:39:00,,0817.9,4.98,0.00,29.1,28.4,00.0,38.0,30.9,07.2,0000.0,0037.52,0009.70,0003.53
2022-04-20 21:40:00,,0817.8,5.00,0.00,29.1,28.4,00.0,38.0,30.9,07.2,0000.0,0037.83,0009.63,0003.52
2022-04-20 21:41:00,,0817.8,5.02,0.00,29.2,28.4,00.0,38.0,30.9,07.2,0000.0,0038.01,0009.58,0003.53
2022-04-20 21:42:00,,0817.9,4.99,0.00,29.2,28.4,00.0,38.0,31.0,07.3,0000.0,0037.79,0009.51,0003.50
2022-04-20 21:43:00,,0818.0,5.00,0.00,29.2,28.5,00.0,38.0,31.0,07.4,0000.0,0036.89,0009.50,0003.50
2022-04-20 21:44:00,,0818.0,4.99,0.00,29.2,28.5,00.0,38.0,31.0,07.2,0000.0,0036.55,0009.39,0003.49
2022-04-20 21:45:00,,0818.0,5.01,0.00,29.2,28.5,00.0,38.0,31.0,07.2,0000.0,0037.95,0009.29,0003.50
2022-04-20 21:46:00,,0817.9,5.00,0.00,29.2,28.5,00.0,38.0,31.0,07.5,0000.0,0036.61,0009.30,0003.50
2022-04-20 21:47:00,,0818.0,4.99,0.00,29.2,28.5,00.0,38.0,31.0,07.2,0000.0,0036.27,0009.32,0003.52
2022-04-20 21:48:00,,0817.8,5.00,0.00,29.2,28.5,00.0,38.0,31.0,07.2,0000.0,0037.04,0009.28,0003.51
2022-04-20 21:49:00,,0818.0,5.00,0.00,29.2,28.5,00.0,38.1,31.0,07.3,0000.0,0037.46,0009.27,0003.52
2022-04-20 21:50:00,,0818.0,4.99,0.00,29.2,28.5,00.0,38.1,31.0,07.1,0000.0,0036.90,0009.23,0003.52
2022-04-20 21:51:00,,0818.0,5.01,0.00,29.2,28.6,00.0,38.1,31.0,07.3,0000.0,0035.83,0009.14,0003.51
2022-04-20 21:52:00,,0818.0,4.99,0.00,29.3,28.6,00.0,38.1,31.1,07.4,0000.0,0035.32,0009.08,0003.51
2022-04-20 21:53:00,,0818.0,5.01,0.00,29.3,28.6,00.0,38.1,31.0,07.3,0000.0,0035.08,0009.16,0003.54
2022-04-20 21:54:00,,0818.0,5.00,0.00,29.3,28.6,00.0,38.1,31.1,07.1,0000.0,0035.47,0009.14,0003.54
2022-04-20 21:55:00,,0818.0,4.99,0.00,29.3,28.6,00.0,38.1,31.1,07.1,0000.0,0034.18,0009.10,0003.55
2022-04-20 21:56:00,,0818.1,5.00,0.00,29.3,28.7,00.0,38.1,31.1,07.2,0000.0,0032.54,0009.11,0003.55
2022-04-20 21:57:00,,0818.2,5.01,0.00,29.4,28.7,00.0,38.2,31.2,07.2,0000.0,0032.46,0009.14,0003.53
2022-04-20 21:58:00,,0818.2,5.00,0.00,29.4,28.7,00.0,38.2,31.2,07.3,0000.0,0031.64,0009.11,0003.52
2022-04-20 21:59:00,,0818.2,4.99,0.00,29.4,28.7,00.0,38.2,31.2,07.3,0000.0,0030.45,0009.17,0003.52
